[[{"header":{"parameterUnit":"m.s-1","parameterCategory":1,"la1":30.2991,"la2":30.254,"lo1":-89.0895,"lo2":-89.0444,"dy":0.0017,"dx":0.0017,"nx":28,"ny":28,"refTime":"2023-10-11T03:00:00:Z","depth":0,"parameterNumber":2,"parameterNumberName":"U-component_of_WINDS"},"data":[0,0,0,0,0,0,0,0,0,0,0,0,0,0,0,0,0,0,0,0,0,0,0,0,0,0,0,0,0,0,0,0,0,0,0,0,0,0,0,0,0,0,0,0,0,0,0,0,0,0,0,0,0,0,0,0,0,0,0.0837,0.0836,0,0.0745,0.0744,0.0743,0.072,0.0721,0.0721,0.0722,0.0622,0.0619,0.0616,0,0,0,0,0,0,0,0,0,0,0,0,0,0.0988,0.0985,0.0837,0.0836,0.0835,0.0745,0.0744,0.0743,0.072,0.0721,0.0721,0.0722,0.0623,0.062,0.0616,0,0,0,0,0,0,0,0,0,0,0,0,0,0.0912,0.0984,0.0837,0.0813,0.081,0.0745,0.0744,0.0742,0.072,0.0721,0.0721,0.0722,0.0625,0.062,0.0615,0.0567,0,0,0.0601,0.0599,0,0,0,0,0,0,0,0,0.0916,0.0906,0.0817,0.0814,0.0811,0.0745,0.0761,0.0683,0.0719,0.0754,0.0722,0.0723,0.0662,0.0654,0.0635,0.0563,0.0559,0.06,0.0597,0.0595,0.0594,0,0,0,0,0,0,0,0.0921,0.091,0.08,0.0816,0.0812,0.0805,0.0795,0.0746,0.0704,0.0751,0.0749,0.0739,0.066,0.064,0.0632,0.0557,0.06,0.0596,0.0593,0.0591,0.044,0.0438,0,0,0,0,0,0,0.0931,0.0914,0.0803,0.0798,0.0867,0.0801,0.079,0.0765,0.0704,0.0696,0.0738,0.0738,0.0647,0.0638,0.0629,0.0568,0.0595,0.0591,0.0588,0.0441,0.0439,0.0438,0,0,0,0,0,0,0.0935,0.0922,0.0807,0.0855,0.084,0.0798,0.077,0.0763,0.0742,0.0695,0.0686,0.0725,0.0648,0.0636,0.0583,0.0564,0.0589,0.0584,0.0442,0.044,0.0439,0.0446,0,0,0,0,0,0,0.0939,0.0923,0.0906,0.0855,0.0838,0.0764,0.0768,0.076,0.0734,0.0733,0.068,0.0672,0.0647,0.059,0.0578,0.0558,0.058,0.0444,0.0441,0.0439,0.0447,0.0445,0.0443,0,0,0,0,0,0.0945,0.0911,0.0905,0.0892,0.0816,0.0763,0.0753,0.0727,0.0733,0.0714,0.0684,0.0674,0.0568,0.0585,0.0571,0.0549,0.0445,0.0442,0.0439,0.0448,0.0445,0.0443,0,0,0,0,0,0,0.0958,0.0904,0.0897,0.0846,0.081,0.076,0.0735,0.0725,0.0685,0.0685,0.0653,0.0641,0.0591,0.0565,0.0584,0.0499,0.0506,0.0501,0.0518,0.0515,0.0512,0.0519,0.0576,0,0,0,0,0,0.0956,0.092,0.0873,0.0832,0.0815,0.0778,0.0754,0.0738,0.0698,0.0682,0.0648,0.0608,0.0566,0.0539,0.0498,0.0444,0.0431,0.0422,0.0419,0.0418,0.0413,0.0381,0.0376,0.043,0.043,0.043,0,0,0.0949,0.0915,0.0894,0.0834,0.0804,0.0766,0.0765,0.0725,0.0695,0.0675,0.0624,0.0597,0.0551,0.0497,0.0472,0.0474,0.0396,0.0415,0.0414,0.041,0.0378,0.0373,0.0368,0.0428,0.0428,0.0429,0,0,0.0918,0.0889,0.0851,0.0822,0.0777,0.0753,0.0744,0.0695,0.0677,0.0625,0.0609,0.0573,0.0502,0.0469,0.0443,0.0399,0.0388,0.0386,0.0374,0.0343,0.0339,0.0335,0.0318,0.0312,0.0382,0.0382,0.0382,0,0.0915,0.0858,0.0833,0.0793,0.0767,0.0749,0.071,0.0681,0.0624,0.0606,0.061,0.0519,0.0487,0.0425,0.0414,0.0394,0.0381,0.0392,0.0342,0.0338,0.0334,0.0317,0.0311,0.0382,0.0382,0.0382,0.0382,0,0.0856,0.0817,0.0791,0.0739,0.071,0.067,0.0638,0.0611,0.0597,0.0572,0.0518,0.0479,0.0429,0.0413,0.0398,0.0348,0.0351,0.0349,0.0355,0.0329,0.0313,0.0306,0.0382,0.0382,0.0382,0.0382,0,0,0.083,0.0764,0.0755,0.0731,0.068,0.0648,0.0607,0.056,0.0537,0.0498,0.0462,0.0402,0.04,0.037,0.0352,0.0325,0.0291,0.0326,0.0324,0.0319,0.0232,0.0233,0.0226,0.0284,0.0282,0.0281,0.0235,0,0.0791,0.072,0.0696,0.0635,0.0598,0.058,0.0544,0.0508,0.0484,0.0447,0.0419,0.0376,0.0377,0.0359,0.0332,0.0301,0.0272,0.0304,0.0247,0.0246,0.0259,0.0217,0.0219,0.0177,0.0229,0.0227,0.0227,0,0.0736,0.0699,0.0635,0.0588,0.0572,0.054,0.0494,0.046,0.0418,0.0402,0.0369,0.0353,0.0307,0.0317,0.0253,0.0275,0.0251,0.0232,0.0229,0.0222,0.0234,0.0208,0.0163,0.0156,0.0217,0.0217,0.0218,0,0.0722,0.0655,0.0609,0.0588,0.0533,0.0511,0.0486,0.0446,0.0418,0.0378,0.036,0.0314,0.0288,0.0252,0.0223,0.0233,0.0161,0.0169,0.0144,0.0145,0.0129,0.013,0.0078,0.0115,0.0115,0.0115,0.0116,0,0.0681,0.0643,0.0601,0.0573,0.0528,0.0501,0.0457,0.0431,0.0395,0.0359,0.034,0.0307,0.0271,0.0232,0.0208,0.0158,0.0147,0.0131,0.0125,0.0132,0.0134,0.0114,0.0116,0.0114,0.0114,0.0114,0.0115,0,0.0658,0.0629,0.0576,0.0529,0.0516,0.0485,0.0443,0.0413,0.0388,0.0343,0.0331,0.0291,0.0244,0.0211,0.0151,0.0135,0.008,0.0075,0.0094,0.0091,0.0068,0.007,0.0001,-0.001,0.0036,0.0036,0.0035,0,0.0633,0.0603,0.0552,0.0528,0.0504,0.0465,0.0437,0.0408,0.038,0.033,0.0306,0.0258,0.0218,0.0144,0.0108,0.0061,0.0054,0.0033,0.0046,0.0054,0.0052,0.0053,0.005,0.003,0.003,0.003,0.003,0,0.0591,0.0579,0.0541,0.0497,0.0466,0.043,0.0393,0.0374,0.0338,0.0307,0.026,0.0229,0.0168,0.012,0.007,0.0042,0.0029,0.0026,0.0017,0.0024,0.0036,0.0028,0.0087,0.0027,0.0027,0.0028,0.0028,0.0028,0.0566,0.0538,0.0498,0.0456,0.0426,0.0392,0.0362,0.0333,0.0294,0.0243,0.0228,0.0179,0.0136,0.0067,0.0039,-0.0002,-0.0,-0.0012,-0.0015,-0.0018,-0.0019,0.0044,-0.0011,-0.0011,-0.0011,-0.0011,-0.0011,0,0.0522,0.0496,0.0458,0.0408,0.0374,0.0367,0.0327,0.0298,0.0256,0.0218,0.018,0.0124,0.0078,0.0038,-0.001,-0.0035,-0.0043,-0.0047,-0.0047,-0.0053,-0.0016,-0.0005,-0.0041,-0.0041,-0.0041,-0.0041,-0.0041,-0.0041,0.0496,0.0448,0.0431,0.0367,0.034,0.0293,0.027,0.0238,0.0208,0.0148,0.011,0.0085,0.0046,-0.0006,-0.005,-0.006,-0.0078,-0.0081,-0.0094,-0.0059,-0.0056,-0.0052,-0.0042,-0.0085,-0.0085,-0.0127,-0.0128,-0.0128]},{"header":{"parameterUnit":"m.s-1","parameterCategory":1,"la1":30.2991,"la2":30.254,"lo1":-89.0895,"lo2":-89.0444,"dy":0.0017,"dx":0.0017,"nx":28,"ny":28,"refTime":"2023-10-11T03:00:00:Z","depth":0,"parameterNumber":3,"parameterNumberName":"V-component_of_WINDS"},"data":[0,0,0,0,0,0,0,0,0,0,0,0,0,0,0,0,0,0,0,0,0,0,0,0,0,0,0,0,0,0,0,0,0,0,0,0,0,0,0,0,0,0,0,0,0,0,0,0,0,0,0,0,0,0,0,0,0,0,-4.5374,-4.5375,0,-4.546,-4.5461,-4.5462,-4.542,-4.5417,-4.5415,-4.5413,-4.5499,-4.5503,-4.5507,0,0,0,0,0,0,0,0,0,0,0,0,0,-4.517,-4.5174,-4.5374,-4.5375,-4.5376,-4.546,-4.5461,-4.5462,-4.542,-4.5417,-4.5415,-4.5412,-4.5497,-4.5502,-4.5507,0,0,0,0,0,0,0,0,0,0,0,0,0,-4.5258,-4.5175,-4.5374,-4.5365,-4.5365,-4.546,-4.5461,-4.5462,-4.5421,-4.5417,-4.5414,-4.5411,-4.5495,-4.5502,-4.5508,-4.5615,0,0,-4.5528,-4.5531,0,0,0,0,0,0,0,0,-4.5253,-4.5265,-4.5365,-4.5366,-4.5366,-4.5426,-4.542,-4.5513,-4.5421,-4.54,-4.5413,-4.5409,-4.5477,-4.5485,-4.5508,-4.5619,-4.5623,-4.5529,-4.5533,-4.5535,-4.5537,0,0,0,0,0,0,0,-4.5247,-4.5261,-4.5408,-4.5367,-4.5367,-4.5356,-4.5365,-4.5438,-4.5456,-4.5401,-4.5398,-4.5409,-4.5476,-4.5502,-4.551,-4.5624,-4.5528,-4.5534,-4.5538,-4.5541,-4.5826,-4.583,0,0,0,0,0,0,-4.5241,-4.5256,-4.5405,-4.541,-4.53,-4.5362,-4.5372,-4.541,-4.5455,-4.5458,-4.5412,-4.5407,-4.5492,-4.5502,-4.5513,-4.564,-4.5535,-4.5541,-4.5545,-4.5823,-4.5827,-4.5831,0,0,0,0,0,0,-4.5237,-4.5255,-4.5402,-4.5333,-4.5351,-4.537,-4.5412,-4.5413,-4.5439,-4.5463,-4.5466,-4.5435,-4.549,-4.5503,-4.559,-4.5643,-4.5544,-4.555,-4.5818,-4.5824,-4.5829,-4.5897,0,0,0,0,0,0,-4.5232,-4.5254,-4.5295,-4.5334,-4.5354,-4.5479,-4.5415,-4.5417,-4.545,-4.5445,-4.5485,-4.5489,-4.5489,-4.558,-4.5596,-4.565,-4.5555,-4.5814,-4.5821,-4.5827,-4.589,-4.5904,-4.5916,0,0,0,0,0,-4.5224,-4.531,-4.5298,-4.5316,-4.5407,-4.5482,-4.5493,-4.5492,-4.5455,-4.5496,-4.5512,-4.5487,-4.5634,-4.559,-4.5607,-4.5664,-4.581,-4.5819,-4.5827,-4.5884,-4.5902,-4.5916,0,0,0,0,0,0,-4.5277,-4.5315,-4.5302,-4.5403,-4.544,-4.5474,-4.5527,-4.551,-4.5557,-4.555,-4.5546,-4.5555,-4.5645,-4.5663,-4.5612,-4.5769,-4.5716,-4.5729,-4.5754,-4.5771,-4.5783,-4.5777,-4.5561,0,0,0,0,0,-4.53,-4.5359,-4.5389,-4.5475,-4.5494,-4.5508,-4.554,-4.5536,-4.5573,-4.5588,-4.561,-4.5647,-4.5701,-4.5737,-4.5788,-4.5893,-4.59,-4.594,-4.5953,-4.5963,-4.5974,-4.603,-4.6048,-4.5858,-4.5858,-4.5858,0,0,-4.5349,-4.5377,-4.5414,-4.5487,-4.5514,-4.5574,-4.5521,-4.5586,-4.5631,-4.5598,-4.5681,-4.5699,-4.5739,-4.5835,-4.5878,-4.5853,-4.6028,-4.5974,-4.5982,-4.5987,-4.6041,-4.6059,-4.6075,-4.5864,-4.5863,-4.5862,0,0,-4.5468,-4.5496,-4.5571,-4.56,-4.5643,-4.5651,-4.5669,-4.5707,-4.5718,-4.5801,-4.5778,-4.583,-4.5924,-4.5954,-4.5981,-4.6112,-4.6091,-4.6128,-4.6196,-4.6251,-4.6266,-4.6279,-4.6326,-4.6343,-4.6139,-4.6139,-4.6139,0,-4.5523,-4.5613,-4.5611,-4.5679,-4.5711,-4.5685,-4.5761,-4.5789,-4.5846,-4.5869,-4.5839,-4.5957,-4.5982,-4.6084,-4.6116,-4.6139,-4.6159,-4.6124,-4.6264,-4.6278,-4.629,-4.6334,-4.6352,-4.6143,-4.6143,-4.6142,-4.6142,0,-4.5678,-4.5741,-4.5796,-4.5854,-4.5892,-4.5963,-4.5971,-4.601,-4.6003,-4.6014,-4.6099,-4.6129,-4.6185,-4.6209,-4.6202,-4.6311,-4.6294,-4.6265,-4.6212,-4.6312,-4.6354,-4.6371,-4.6149,-4.6148,-4.6147,-4.6145,0,0,-4.5833,-4.5888,-4.5909,-4.5934,-4.598,-4.6028,-4.6098,-4.6154,-4.6188,-4.6228,-4.6286,-4.6366,-4.6339,-4.637,-4.6367,-4.6415,-4.6516,-4.638,-4.6381,-4.6404,-4.6637,-4.6659,-4.6679,-4.6503,-4.6506,-4.6509,-4.6634,0,-4.5955,-4.6079,-4.6079,-4.6192,-4.625,-4.6226,-4.6287,-4.6321,-4.6333,-4.6383,-4.6396,-4.6453,-4.6413,-4.6432,-4.6479,-4.6494,-4.6563,-4.6485,-4.6556,-4.6559,-4.6547,-4.67,-4.6724,-4.6841,-4.665,-4.6653,-4.6655,0,-4.6115,-4.6161,-4.6281,-4.6318,-4.6342,-4.6397,-4.6449,-4.6497,-4.6535,-4.654,-4.6576,-4.6564,-4.6634,-4.6579,-4.6676,-4.6623,-4.6652,-4.6663,-4.6668,-4.6674,-4.6613,-4.6711,-4.6878,-4.6895,-4.668,-4.6678,-4.6677,0,-4.6215,-4.6308,-4.6391,-4.6414,-4.6459,-4.6498,-4.6519,-4.6554,-4.6588,-4.6633,-4.6654,-4.6707,-4.6735,-4.6775,-4.6778,-4.6738,-4.6875,-4.6821,-4.6881,-4.6881,-4.6911,-4.6909,-4.7085,-4.693,-4.693,-4.6929,-4.6929,0,-4.6352,-4.6426,-4.6437,-4.6488,-4.657,-4.6569,-4.665,-4.6667,-4.6698,-4.6752,-4.6734,-4.6784,-4.6785,-4.6836,-4.6839,-4.6918,-4.6931,-4.6937,-4.6937,-4.6939,-4.6938,-4.6957,-4.6949,-4.6934,-4.6933,-4.6932,-4.6931,0,-4.6478,-4.6489,-4.6578,-4.6614,-4.6625,-4.6684,-4.6714,-4.6763,-4.6773,-4.6841,-4.6857,-4.6873,-4.6933,-4.694,-4.7009,-4.701,-4.7106,-4.7097,-4.7093,-4.7092,-4.7152,-4.7146,-4.7346,-4.7373,-4.7201,-4.7202,-4.7204,0,-4.6565,-4.6621,-4.6664,-4.6699,-4.6722,-4.6778,-4.6813,-4.6814,-4.6851,-4.6899,-4.6941,-4.6999,-4.7046,-4.7142,-4.7159,-4.7212,-4.7204,-4.727,-4.7212,-4.7212,-4.7205,-4.7202,-4.7207,-4.7282,-4.7284,-4.7285,-4.7286,0,-4.6717,-4.672,-4.6771,-4.6824,-4.6867,-4.6908,-4.6948,-4.6977,-4.6983,-4.7025,-4.7086,-4.7122,-4.7193,-4.7251,-4.7303,-4.7323,-4.7306,-4.7305,-4.7322,-4.7324,-4.732,-4.7323,-4.7124,-4.73,-4.7299,-4.7298,-4.7297,-4.7296,-4.6826,-4.6875,-4.6913,-4.6971,-4.7,-4.7038,-4.7085,-4.7102,-4.7153,-4.7212,-4.7209,-4.7276,-4.7312,-4.738,-4.7404,-4.7457,-4.7434,-4.7459,-4.7465,-4.7471,-4.7477,-4.7312,-4.7466,-4.7466,-4.7465,-4.7465,-4.7465,0,-4.6977,-4.7001,-4.7054,-4.711,-4.7155,-4.7136,-4.7178,-4.7217,-4.7277,-4.7313,-4.7359,-4.7429,-4.7485,-4.7507,-4.7561,-4.7599,-4.7592,-4.7613,-4.761,-4.7615,-4.7494,-4.7474,-4.7618,-4.7618,-4.7618,-4.7617,-4.7617,-4.7617,-4.7062,-4.7144,-4.7151,-4.7247,-4.7269,-4.7336,-4.7362,-4.7396,-4.7424,-4.7504,-4.7551,-4.7565,-4.7595,-4.7652,-4.7702,-4.7707,-4.7727,-4.7752,-4.7753,-4.7639,-4.7624,-4.7609,-4.759,-4.7756,-4.7756,-4.787,-4.7872,-4.7872]}]]